Time,TemperatureF,DewpointF,PressureIn,WindDirection,WindDirectionDegrees,WindSpeedMPH,WindSpeedGustMPH,Humidity,HourlyPrecipIn,Conditions,Clouds,dailyrainin,SoftwareType,DateUTC
2013-02-27 00:00:00,74.8,71.3,29.85,SW,233,10.4,10.4,89,0.00,CLR,,0.00,WeatherDisplay:10.37,2013-02-27 05:00:00,
2013-02-27 00:05:00,74.9,71.8,29.85,WNW,287,15.0,15.0,90,0.00,CLR,,0.00,WeatherDisplay:10.37,2013-02-27 05:05:00,
2013-02-27 00:10:00,75.0,71.9,29.84,SW,217,9.2,9.2,90,0.00,CLR,,0.00,WeatherDisplay:10.37,2013-02-27 05:10:00,
2013-02-27 00:15:00,75.0,71.9,29.84,WSW,250,11.5,11.5,90,0.00,CLR,,0.00,WeatherDisplay:10.37,2013-02-27 05:15:00,
2013-02-27 00:20:00,75.1,72.0,29.84,WSW,257,12.7,12.7,90,0.00,CLR,,0.00,WeatherDisplay:10.37,2013-02-27 05:20:00,
2013-02-27 00:25:00,75.1,72.0,29.84,SW,215,9.2,9.2,90,0.00,CLR,,0.00,WeatherDisplay:10.37,2013-02-27 05:25:00,
2013-02-27 00:30:00,75.2,72.1,29.84,WSW,241,10.4,10.4,90,0.00,CLR,,0.00,WeatherDisplay:10.37,2013-02-27 05:30:00,
2013-02-27 00:35:00,75.3,72.2,29.84,SW,219,11.5,11.5,90,0.00,CLR,,0.00,WeatherDisplay:10.37,2013-02-27 05:35:00,
2013-02-27 00:40:00,75.3,72.2,29.84,SW,231,10.4,10.4,90,0.00,CLR,,0.00,WeatherDisplay:10.37,2013-02-27 05:40:00,
2013-02-27 00:45:00,75.3,72.2,29.84,SW,232,10.4,10.4,90,0.00,CLR,,0.00,WeatherDisplay:10.37,2013-02-27 05:45:00,
2013-02-27 00:50:00,75.3,72.2,29.84,SW,220,11.5,11.5,90,0.00,CLR,,0.00,WeatherDisplay:10.37,2013-02-27 05:50:00,
2013-02-27 00:55:00,75.3,72.2,29.84,SW,234,11.5,11.5,90,0.00,CLR,,0.00,WeatherDisplay:10.37,2013-02-27 05:55:00,
2013-02-27 01:00:00,75.3,72.2,29.84,SW,231,12.7,12.7,90,0.00,CLR,,0.00,WeatherDisplay:10.37,2013-02-27 06:00:00,
2013-02-27 01:05:00,75.2,72.1,29.84,WSW,258,11.5,11.5,90,0.00,CLR,,0.00,WeatherDisplay:10.37,2013-02-27 06:05:00,
2013-02-27 01:10:00,75.2,72.1,29.84,SW,221,9.2,9.2,90,0.00,CLR,,0.00,WeatherDisplay:10.37,2013-02-27 06:10:00,
2013-02-27 01:15:00,75.1,72.0,29.84,SW,228,10.4,10.4,90,0.00,CLR,,0.00,WeatherDisplay:10.37,2013-02-27 06:15:00,
2013-02-27 01:20:00,75.1,72.3,29.84,West,272,11.5,11.5,91,0.00,CLR,,0.00,WeatherDisplay:10.37,2013-02-27 06:20:00,
2013-02-27 01:25:00,75.0,72.2,29.84,SW,232,10.0,10.0,91,0.00,CLR,,0.00,WeatherDisplay:10.37,2013-02-27 06:25:00,
2013-02-27 01:30:00,74.9,72.1,29.84,WSW,237,6.0,6.0,91,0.00,CLR,,0.00,WeatherDisplay:10.37,2013-02-27 06:30:00,
2013-02-27 01:35:00,74.9,72.1,29.85,West,277,10.4,10.4,91,0.00,CLR,,0.00,WeatherDisplay:10.37,2013-02-27 06:35:00,
2013-02-27 01:40:00,74.8,72.0,29.84,WSW,255,10.4,10.4,91,0.00,CLR,,0.00,WeatherDisplay:10.37,2013-02-27 06:40:00,
2013-02-27 01:45:00,74.8,72.0,29.84,SW,216,10.4,10.4,91,0.00,CLR,,0.00,WeatherDisplay:10.37,2013-02-27 06:45:00,
2013-02-27 01:50:00,74.8,72.0,29.84,SSW,213,10.4,10.4,91,0.00,CLR,,0.00,WeatherDisplay:10.37,2013-02-27 06:50:00,
2013-02-27 01:55:00,74.7,71.9,29.84,SSW,205,9.2,9.2,91,0.00,CLR,,0.00,WeatherDisplay:10.37,2013-02-27 06:55:00,
2013-02-27 02:00:00,74.7,71.9,29.83,SW,217,11.5,11.5,91,0.00,CLR,,0.00,WeatherDisplay:10.37,2013-02-27 07:00:00,
2013-02-27 02:05:00,74.6,71.8,29.83,West,274,11.5,11.5,91,0.00,CLR,,0.00,WeatherDisplay:10.37,2013-02-27 07:05:00,
2013-02-27 02:10:00,74.5,71.7,29.84,West,265,11.5,11.5,91,0.00,CLR,,0.00,WeatherDisplay:10.37,2013-02-27 07:10:00,
2013-02-27 02:15:00,74.5,71.7,29.83,WSW,247,10.4,10.4,91,0.00,CLR,,0.00,WeatherDisplay:10.37,2013-02-27 07:15:00,
2013-02-27 02:20:00,74.4,71.6,29.83,WSW,247,5.8,5.8,91,0.00,CLR,,0.00,WeatherDisplay:10.37,2013-02-27 07:20:00,
2013-02-27 02:25:00,74.3,71.5,29.84,West,271,6.9,6.9,91,0.00,CLR,,0.00,WeatherDisplay:10.37,2013-02-27 07:25:00,
2013-02-27 02:30:00,74.2,71.4,29.84,WSW,243,11.5,11.5,91,0.00,CLR,,0.00,WeatherDisplay:10.37,2013-02-27 07:30:00,
2013-02-27 02:35:00,74.2,71.1,29.84,SW,236,18.4,18.4,90,0.00,CLR,,0.00,WeatherDisplay:10.37,2013-02-27 07:35:00,
2013-02-27 02:40:00,74.2,71.1,29.84,West,269,10.4,10.4,90,0.00,CLR,,0.00,WeatherDisplay:10.37,2013-02-27 07:40:00,
2013-02-27 02:45:00,74.2,71.1,29.84,West,270,13.8,13.8,90,0.00,CLR,,0.00,WeatherDisplay:10.37,2013-02-27 07:45:00,
2013-02-27 02:50:00,74.1,71.3,29.83,WSW,253,5.8,5.8,91,0.00,CLR,,0.00,WeatherDisplay:10.37,2013-02-27 07:50:00,
2013-02-27 02:55:00,73.8,70.4,29.84,WNW,301,12.7,12.7,89,0.00,CLR,,0.00,WeatherDisplay:10.37,2013-02-27 07:55:00,
2013-02-27 03:00:00,73.1,69.0,29.83,NNW,333,10.4,10.4,87,0.00,CLR,,0.00,WeatherDisplay:10.37,2013-02-27 08:00:00,
2013-02-27 03:05:00,72.6,67.8,29.84,WNW,288,11.5,11.5,85,0.00,CLR,,0.00,WeatherDisplay:10.37,2013-02-27 08:05:00,
2013-02-27 03:10:00,72.4,67.3,29.84,WNW,286,11.5,11.5,84,0.00,CLR,,0.00,WeatherDisplay:10.37,2013-02-27 08:10:00,
2013-02-27 03:15:00,72.1,66.6,29.83,WNW,296,11.5,11.5,83,0.00,CLR,,0.00,WeatherDisplay:10.37,2013-02-27 08:15:00,
2013-02-27 03:20:00,71.9,66.8,29.83,West,278,6.9,6.9,84,0.00,CLR,,0.00,WeatherDisplay:10.37,2013-02-27 08:20:00,
2013-02-27 03:25:00,71.7,66.3,29.83,NW,305,8.0,8.0,83,0.00,CLR,,0.00,WeatherDisplay:10.37,2013-02-27 08:25:00,
2013-02-27 03:30:00,71.5,65.7,29.83,NW,314,6.9,6.9,82,0.00,CLR,,0.00,WeatherDisplay:10.37,2013-02-27 08:30:00,
2013-02-27 03:35:00,71.4,66.0,29.83,NW,311,4.6,4.6,83,0.00,CLR,,0.00,WeatherDisplay:10.37,2013-02-27 08:35:00,
2013-02-27 03:40:00,71.3,65.9,29.83,NW,311,6.9,6.9,83,0.00,CLR,,0.00,WeatherDisplay:10.37,2013-02-27 08:40:00,
2013-02-27 03:45:00,71.1,65.7,29.83,WNW,298,4.6,4.6,83,0.00,CLR,,0.00,WeatherDisplay:10.37,2013-02-27 08:45:00,
2013-02-27 03:50:00,70.9,65.8,29.83,NW,306,3.5,3.5,84,0.00,CLR,,0.00,WeatherDisplay:10.37,2013-02-27 08:50:00,
2013-02-27 03:55:00,70.7,66.0,29.83,WNW,298,4.6,4.6,85,0.00,CLR,,0.00,WeatherDisplay:10.37,2013-02-27 08:55:00,
2013-02-27 04:00:00,70.6,66.2,29.83,WNW,288,3.5,3.5,86,0.00,CLR,,0.00,WeatherDisplay:10.37,2013-02-27 09:00:00,
2013-02-27 04:05:00,70.4,66.0,29.83,NW,305,3.5,3.5,86,0.00,CLR,,0.00,WeatherDisplay:10.37,2013-02-27 09:05:00,
2013-02-27 04:10:00,70.3,66.2,29.83,WNW,296,3.5,3.5,87,0.00,CLR,,0.00,WeatherDisplay:10.37,2013-02-27 09:10:00,
2013-02-27 04:15:00,70.2,66.1,29.83,NW,311,4.6,4.6,87,0.00,CLR,,0.00,WeatherDisplay:10.37,2013-02-27 09:15:00,
2013-02-27 04:20:00,70.1,66.0,29.83,West,274,5.0,5.0,87,0.00,CLR,,0.00,WeatherDisplay:10.37,2013-02-27 09:20:00,
2013-02-27 04:25:00,70.0,66.0,29.83,NW,304,3.5,3.5,87,0.00,CLR,,0.00,WeatherDisplay:10.37,2013-02-27 09:25:00,
2013-02-27 04:30:00,69.9,65.9,29.84,WNW,300,3.5,3.5,87,0.00,CLR,,0.00,WeatherDisplay:10.37,2013-02-27 09:30:00,
2013-02-27 04:35:00,69.8,66.1,29.84,NW,313,3.5,3.5,88,0.00,CLR,,0.00,WeatherDisplay:10.37,2013-02-27 09:35:00,
2013-02-27 04:40:00,69.6,65.2,29.85,NW,316,9.2,9.2,86,0.00,CLR,,0.00,WeatherDisplay:10.37,2013-02-27 09:40:00,
2013-02-27 04:45:00,69.6,65.2,29.85,North,5,6.9,6.9,86,0.00,CLR,,0.00,WeatherDisplay:10.37,2013-02-27 09:45:00,
2013-02-27 04:50:00,69.6,65.2,29.85,NW,318,8.1,8.1,86,0.00,CLR,,0.00,WeatherDisplay:10.37,2013-02-27 09:50:00,
2013-02-27 04:55:00,69.5,64.8,29.85,NW,324,10.4,10.4,85,0.00,CLR,,0.00,WeatherDisplay:10.37,2013-02-27 09:55:00,
2013-02-27 05:00:00,69.5,64.5,29.85,North,355,11.5,11.5,84,0.00,CLR,,0.00,WeatherDisplay:10.37,2013-02-27 10:00:00,
2013-02-27 05:05:00,69.4,64.4,29.85,NNW,334,5.8,5.8,84,0.00,CLR,,0.00,WeatherDisplay:10.37,2013-02-27 10:05:00,
2013-02-27 05:10:00,69.3,64.6,29.86,NW,324,6.9,6.9,85,0.00,CLR,,0.00,WeatherDisplay:10.37,2013-02-27 10:10:00,
2013-02-27 05:15:00,69.2,64.5,29.86,NW,316,6.9,6.9,85,0.00,CLR,,0.00,WeatherDisplay:10.37,2013-02-27 10:15:00,
2013-02-27 05:16:00,69.2,64.5,29.86,NNW,333,4.6,4.6,85,0.00,CLR,,0.00,WeatherDisplay:10.37,2013-02-27 10:16:00,
2013-02-27 05:21:00,69.1,64.4,29.86,NNW,332,10.4,10.4,85,0.00,CLR,,0.00,WeatherDisplay:10.37,2013-02-27 10:21:00,
2013-02-27 05:26:00,69.0,64.3,29.86,NW,320,11.5,11.5,85,0.00,CLR,,0.00,WeatherDisplay:10.37,2013-02-27 10:26:00,
2013-02-27 05:31:00,68.8,64.4,29.86,NNW,346,9.2,9.2,86,0.00,CLR,,0.00,WeatherDisplay:10.37,2013-02-27 10:31:00,
2013-02-27 05:36:00,68.6,64.2,29.86,NW,324,8.0,8.0,86,0.00,CLR,,0.00,WeatherDisplay:10.37,2013-02-27 10:36:00,
2013-02-27 05:41:00,68.3,64.3,29.86,NW,325,9.2,9.2,87,0.00,CLR,,0.00,WeatherDisplay:10.37,2013-02-27 10:41:00,
2013-02-27 05:46:00,68.2,64.2,29.87,WNW,303,11.0,11.0,87,0.00,CLR,,0.00,WeatherDisplay:10.37,2013-02-27 10:46:00,
2013-02-27 05:51:00,68.1,64.1,29.87,North,360,5.8,5.8,87,0.00,CLR,,0.00,WeatherDisplay:10.37,2013-02-27 10:51:00,
2013-02-27 05:56:00,68.1,64.1,29.87,North,355,5.8,5.8,87,0.00,CLR,,0.00,WeatherDisplay:10.37,2013-02-27 10:56:00,
2013-02-27 06:01:00,67.9,63.9,29.87,NNW,334,9.2,9.2,87,0.00,CLR,,0.00,WeatherDisplay:10.37,2013-02-27 11:01:00,
2013-02-27 06:06:00,67.7,64.0,29.87,NW,308,10.4,10.4,88,0.00,CLR,,0.00,WeatherDisplay:10.37,2013-02-27 11:06:00,
2013-02-27 06:11:00,67.6,63.9,29.87,NNW,348,5.0,5.0,88,0.00,CLR,,0.00,WeatherDisplay:10.37,2013-02-27 11:11:00,
2013-02-27 06:16:00,67.5,64.1,29.88,WNW,302,4.0,4.0,89,0.00,CLR,,0.00,WeatherDisplay:10.37,2013-02-27 11:16:00,
2013-02-27 06:21:00,67.4,63.7,29.88,North,355,5.8,5.8,88,0.00,CLR,,0.00,WeatherDisplay:10.37,2013-02-27 11:21:00,
2013-02-27 06:26:00,67.3,63.3,29.88,WNW,296,5.8,5.8,87,0.00,CLR,,0.00,WeatherDisplay:10.37,2013-02-27 11:26:00,
2013-02-27 06:31:00,67.1,63.1,29.88,NW,311,10.4,10.4,87,0.00,CLR,,0.00,WeatherDisplay:10.37,2013-02-27 11:31:00,
2013-02-27 06:36:00,67.0,63.0,29.88,NW,324,6.9,6.9,87,0.00,CLR,,0.00,WeatherDisplay:10.37,2013-02-27 11:36:00,
2013-02-27 06:41:00,67.0,63.0,29.89,NW,324,6.9,6.9,87,0.00,CLR,,0.00,WeatherDisplay:10.37,2013-02-27 11:41:00,
2013-02-27 06:46:00,66.9,62.6,29.89,NW,318,11.5,11.5,86,0.00,CLR,,0.00,WeatherDisplay:10.37,2013-02-27 11:46:00,
2013-02-27 06:51:00,66.8,62.8,29.89,NW,309,5.8,5.8,87,0.00,CLR,,0.00,WeatherDisplay:10.37,2013-02-27 11:51:00,
2013-02-27 06:56:00,66.8,62.5,29.89,NW,319,9.2,9.2,86,0.00,CLR,,0.00,WeatherDisplay:10.37,2013-02-27 11:56:00,
2013-02-27 07:01:00,66.6,62.6,29.89,NNW,348,6.9,6.9,87,0.00,CLR,,0.00,WeatherDisplay:10.37,2013-02-27 12:01:00,
2013-02-27 07:06:00,66.6,62.6,29.89,NW,317,9.0,9.0,87,0.00,CLR,,0.00,WeatherDisplay:10.37,2013-02-27 12:06:00,
2013-02-27 07:11:00,66.6,62.6,29.89,NW,321,9.2,9.2,87,0.00,CLR,,0.00,WeatherDisplay:10.37,2013-02-27 12:11:00,
2013-02-27 07:16:00,66.6,62.6,29.89,WNW,301,10.0,10.0,87,0.00,CLR,,0.00,WeatherDisplay:10.37,2013-02-27 12:16:00,
2013-02-27 07:21:00,66.6,62.6,29.89,NNW,331,6.9,6.9,87,0.00,CLR,,0.00,WeatherDisplay:10.37,2013-02-27 12:21:00,
2013-02-27 07:26:00,66.7,62.4,29.89,North,355,11.5,11.5,86,0.00,CLR,,0.00,WeatherDisplay:10.37,2013-02-27 12:26:00,
2013-02-27 07:31:00,66.8,62.1,29.89,NNW,336,11.5,11.5,85,0.00,CLR,,0.00,WeatherDisplay:10.37,2013-02-27 12:31:00,
2013-02-27 07:36:00,67.1,62.4,29.89,WNW,284,10.4,10.4,85,0.00,CLR,,0.00,WeatherDisplay:10.37,2013-02-27 12:36:00,
2013-02-27 07:41:00,67.2,62.2,29.90,NW,306,6.0,6.0,84,0.00,CLR,,0.00,WeatherDisplay:10.37,2013-02-27 12:41:00,
2013-02-27 07:46:00,67.5,62.5,29.90,NNW,333,8.1,8.1,84,0.00,CLR,,0.00,WeatherDisplay:10.37,2013-02-27 12:46:00,
2013-02-27 07:51:00,67.8,62.4,29.90,NNW,336,6.9,6.9,83,0.00,CLR,,0.00,WeatherDisplay:10.37,2013-02-27 12:51:00,
2013-02-27 07:56:00,68.1,62.7,29.90,West,265,4.6,4.6,83,0.00,CLR,,0.00,WeatherDisplay:10.37,2013-02-27 12:56:00,
2013-02-27 08:01:00,68.4,62.3,29.90,WNW,295,10.4,10.4,81,0.00,CLR,,0.00,WeatherDisplay:10.37,2013-02-27 13:01:00,
2013-02-27 08:06:00,68.5,62.1,29.91,NNW,344,8.1,8.1,80,0.00,CLR,,0.00,WeatherDisplay:10.37,2013-02-27 13:06:00,
2013-02-27 08:11:00,68.7,62.3,29.91,WNW,300,8.1,8.1,80,0.00,CLR,,0.00,WeatherDisplay:10.37,2013-02-27 13:11:00,
2013-02-27 08:16:00,69.0,62.2,29.92,NNW,331,9.2,9.2,79,0.00,CLR,,0.00,WeatherDisplay:10.37,2013-02-27 13:16:00,
2013-02-27 08:21:00,69.0,61.9,29.92,NNW,341,9.2,9.2,78,0.00,CLR,,0.00,WeatherDisplay:10.37,2013-02-27 13:21:00,
2013-02-27 08:26:00,68.8,61.3,29.91,WNW,298,9.2,9.2,77,0.00,CLR,,0.00,WeatherDisplay:10.37,2013-02-27 13:26:00,
2013-02-27 08:31:00,68.8,60.9,29.91,NW,304,5.8,5.8,76,0.00,CLR,,0.00,WeatherDisplay:10.37,2013-02-27 13:31:00,
2013-02-27 08:36:00,69.2,61.3,29.91,North,360,9.0,9.0,76,0.00,CLR,,0.00,WeatherDisplay:10.37,2013-02-27 13:36:00,
2013-02-27 08:41:00,69.6,60.9,29.92,North,349,10.4,10.4,74,0.00,CLR,,0.00,WeatherDisplay:10.37,2013-02-27 13:41:00,
2013-02-27 08:46:00,70.1,61.4,29.92,NNW,329,10.0,10.0,74,0.00,CLR,,0.00,WeatherDisplay:10.37,2013-02-27 13:46:00,
2013-02-27 08:51:00,69.9,60.1,29.91,WNW,286,9.2,9.2,71,0.00,CLR,,0.00,WeatherDisplay:10.37,2013-02-27 13:51:00,
2013-02-27 08:56:00,69.5,59.7,29.92,NNW,329,9.2,9.2,71,0.00,CLR,,0.00,WeatherDisplay:10.37,2013-02-27 13:56:00,
2013-02-27 09:01:00,69.4,59.6,29.92,NW,317,6.9,6.9,71,0.00,CLR,,0.00,WeatherDisplay:10.37,2013-02-27 14:01:00,
2013-02-27 09:06:00,69.4,60.4,29.93,WNW,300,4.6,4.6,73,0.00,CLR,,0.00,WeatherDisplay:10.37,2013-02-27 14:06:00,
2013-02-27 09:11:00,69.5,60.5,29.93,North,349,9.2,9.2,73,0.00,CLR,,0.00,WeatherDisplay:10.37,2013-02-27 14:11:00,
2013-02-27 09:16:00,70.0,60.9,29.93,NNW,339,6.9,6.9,73,0.00,CLR,,0.00,WeatherDisplay:10.37,2013-02-27 14:16:00,
2013-02-27 09:21:00,71.1,60.8,29.92,NW,313,11.5,11.5,70,0.00,CLR,,0.00,WeatherDisplay:10.37,2013-02-27 14:21:00,
2013-02-27 09:26:00,71.8,61.1,29.92,NNE,22,9.2,9.2,69,0.00,CLR,,0.00,WeatherDisplay:10.37,2013-02-27 14:26:00,
2013-02-27 09:31:00,71.8,60.2,29.92,North,5,9.2,9.2,67,0.00,CLR,,0.00,WeatherDisplay:10.37,2013-02-27 14:31:00,
2013-02-27 09:36:00,71.7,60.2,29.92,NNW,338,6.0,6.0,67,0.00,CLR,,0.00,WeatherDisplay:10.37,2013-02-27 14:36:00,
2013-02-27 09:41:00,71.8,60.2,29.92,NNW,336,5.8,5.8,67,0.00,CLR,,0.00,WeatherDisplay:10.37,2013-02-27 14:41:00,
2013-02-27 09:46:00,72.3,60.3,29.92,NW,323,9.0,9.0,66,0.00,CLR,,0.00,WeatherDisplay:10.37,2013-02-27 14:46:00,
2013-02-27 09:51:00,72.6,60.6,29.92,North,355,9.0,9.0,66,0.00,CLR,,0.00,WeatherDisplay:10.37,2013-02-27 14:51:00,
2013-02-27 09:56:00,72.9,60.0,29.92,NW,325,8.1,8.1,64,0.00,CLR,,0.00,WeatherDisplay:10.37,2013-02-27 14:56:00,
2013-02-27 10:01:00,73.0,60.5,29.92,NW,307,6.0,6.0,65,0.00,CLR,,0.00,WeatherDisplay:10.37,2013-02-27 15:01:00,
2013-02-27 10:06:00,73.1,59.8,29.93,NNW,345,6.9,6.9,63,0.00,CLR,,0.00,WeatherDisplay:10.37,2013-02-27 15:06:00,
2013-02-27 10:11:00,73.0,60.1,29.93,NW,319,11.5,11.5,64,0.00,CLR,,0.00,WeatherDisplay:10.37,2013-02-27 15:11:00,
2013-02-27 10:16:00,72.7,59.8,29.93,NNW,337,8.1,8.1,64,0.00,CLR,,0.00,WeatherDisplay:10.37,2013-02-27 15:16:00,
2013-02-27 10:21:00,72.4,60.0,29.93,NW,304,9.2,9.2,65,0.00,CLR,,0.00,WeatherDisplay:10.37,2013-02-27 15:21:00,
2013-02-27 10:26:00,72.4,60.0,29.93,WNW,302,9.2,9.2,65,0.00,CLR,,0.00,WeatherDisplay:10.37,2013-02-27 15:26:00,
2013-02-27 10:31:00,72.2,59.8,29.93,NNW,339,6.9,6.9,65,0.00,CLR,,0.00,WeatherDisplay:10.37,2013-02-27 15:31:00,
2013-02-27 10:36:00,72.0,60.0,29.93,NNW,348,7.0,7.0,66,0.00,CLR,,0.00,WeatherDisplay:10.37,2013-02-27 15:36:00,
2013-02-27 10:41:00,71.8,60.2,29.93,NNW,344,4.6,4.6,67,0.00,CLR,,0.00,WeatherDisplay:10.37,2013-02-27 15:41:00,
2013-02-27 10:46:00,71.9,60.3,29.93,North,350,10.0,10.0,67,0.00,CLR,,0.00,WeatherDisplay:10.37,2013-02-27 15:46:00,
2013-02-27 10:51:00,71.9,60.3,29.93,NNW,332,5.0,5.0,67,0.00,CLR,,0.00,WeatherDisplay:10.37,2013-02-27 15:51:00,
2013-02-27 10:56:00,71.8,60.2,29.93,WNW,297,5.8,5.8,67,0.00,CLR,,0.00,WeatherDisplay:10.37,2013-02-27 15:56:00,
2013-02-27 11:01:00,71.9,60.3,29.93,WNW,294,4.6,4.6,67,0.00,CLR,,0.00,WeatherDisplay:10.37,2013-02-27 16:01:00,
2013-02-27 11:06:00,72.0,60.0,29.93,NW,306,4.6,4.6,66,0.00,CLR,,0.00,WeatherDisplay:10.37,2013-02-27 16:06:00,
2013-02-27 11:11:00,71.9,59.5,29.93,NW,321,4.0,4.0,65,0.00,CLR,,0.00,WeatherDisplay:10.37,2013-02-27 16:11:00,
2013-02-27 11:16:00,71.7,59.7,29.93,West,279,3.5,3.5,66,0.00,CLR,,0.00,WeatherDisplay:10.37,2013-02-27 16:16:00,
2013-02-27 11:21:00,71.7,60.2,29.93,WNW,294,3.5,3.5,67,0.00,CLR,,0.00,WeatherDisplay:10.37,2013-02-27 16:21:00,
2013-02-27 11:26:00,71.5,60.0,29.93,WNW,284,5.0,5.0,67,0.00,CLR,,0.00,WeatherDisplay:10.37,2013-02-27 16:26:00,
2013-02-27 11:31:00,71.4,59.4,29.93,NW,324,3.5,3.5,66,0.00,CLR,,0.00,WeatherDisplay:10.37,2013-02-27 16:31:00,
2013-02-27 11:36:00,71.5,60.0,29.92,NW,316,5.0,5.0,67,0.00,CLR,,0.00,WeatherDisplay:10.37,2013-02-27 16:36:00,
2013-02-27 11:41:00,71.5,60.0,29.92,WNW,302,3.5,3.5,67,0.00,CLR,,0.00,WeatherDisplay:10.37,2013-02-27 16:41:00,
2013-02-27 11:46:00,71.5,60.0,29.92,NW,315,3.5,3.5,67,0.00,CLR,,0.00,WeatherDisplay:10.37,2013-02-27 16:46:00,
2013-02-27 11:51:00,71.5,60.4,29.92,NW,315,3.5,3.5,68,0.00,CLR,,0.00,WeatherDisplay:10.37,2013-02-27 16:51:00,
2013-02-27 11:56:00,71.7,60.6,29.92,WNW,287,4.6,4.6,68,0.00,CLR,,0.00,WeatherDisplay:10.37,2013-02-27 16:56:00,
2013-02-27 12:01:00,72.1,60.5,29.92,NNW,342,4.6,4.6,67,0.00,CLR,,0.00,WeatherDisplay:10.37,2013-02-27 17:01:00,
2013-02-27 12:06:00,72.5,60.9,29.92,NW,315,3.5,3.5,67,0.00,CLR,,0.00,WeatherDisplay:10.37,2013-02-27 17:06:00,
2013-02-27 12:11:00,72.7,60.3,29.92,NW,313,3.5,3.5,65,0.00,CLR,,0.00,WeatherDisplay:10.37,2013-02-27 17:11:00,
2013-02-27 12:16:00,72.5,60.1,29.92,NW,315,4.6,4.6,65,0.00,CLR,,0.00,WeatherDisplay:10.37,2013-02-27 17:16:00,
2013-02-27 12:21:00,72.3,59.9,29.92,NW,317,3.5,3.5,65,0.00,CLR,,0.00,WeatherDisplay:10.37,2013-02-27 17:21:00,
2013-02-27 12:26:00,72.0,60.0,29.92,NW,312,2.3,2.3,66,0.00,CLR,,0.00,WeatherDisplay:10.37,2013-02-27 17:26:00,
2013-02-27 12:31:00,71.9,59.9,29.92,NNW,330,2.0,2.0,66,0.00,CLR,,0.00,WeatherDisplay:10.37,2013-02-27 17:31:00,
2013-02-27 12:36:00,72.0,60.4,29.92,North,355,1.2,1.2,67,0.00,CLR,,0.00,WeatherDisplay:10.37,2013-02-27 17:36:00,
2013-02-27 12:41:00,72.0,60.0,29.91,NNW,330,1.2,1.2,66,0.00,CLR,,0.00,WeatherDisplay:10.37,2013-02-27 17:41:00,
2013-02-27 12:46:00,72.1,60.1,29.91,NNW,329,1.2,1.2,66,0.00,CLR,,0.00,WeatherDisplay:10.37,2013-02-27 17:46:00,
2013-02-27 12:51:00,72.1,60.1,29.91,NW,308,0.0,0.0,66,0.00,CLR,,0.00,WeatherDisplay:10.37,2013-02-27 17:51:00,
2013-02-27 12:56:00,72.3,60.7,29.91,NW,310,2.3,2.3,67,0.00,CLR,,0.00,WeatherDisplay:10.37,2013-02-27 17:56:00,
2013-02-27 13:01:00,72.7,60.3,29.91,NNE,15,0.0,0.0,65,0.00,CLR,,0.00,WeatherDisplay:10.37,2013-02-27 18:01:00,
2013-02-27 13:06:00,73.0,60.5,29.91,NNE,15,0.0,0.0,65,0.00,CLR,,0.00,WeatherDisplay:10.37,2013-02-27 18:06:00,
2013-02-27 13:11:00,73.3,60.8,29.91,NNE,15,1.0,0.0,65,0.00,CLR,,0.00,WeatherDisplay:10.37,2013-02-27 18:11:00,
2013-02-27 13:16:00,73.0,60.5,29.90,West,261,1.2,1.2,65,0.00,CLR,,0.00,WeatherDisplay:10.37,2013-02-27 18:16:00,
2013-02-27 13:21:00,72.9,60.9,29.90,SW,231,2.3,2.3,66,0.00,CLR,,0.00,WeatherDisplay:10.37,2013-02-27 18:21:00,
2013-02-27 13:26:00,72.6,60.6,29.90,SSW,198,2.3,2.3,66,0.00,CLR,,0.00,WeatherDisplay:10.37,2013-02-27 18:26:00,
2013-02-27 13:31:00,72.4,61.2,29.90,SSW,199,2.3,2.3,68,0.00,CLR,,0.00,WeatherDisplay:10.37,2013-02-27 18:31:00,
2013-02-27 13:36:00,72.3,62.0,29.90,SW,233,3.5,3.5,70,0.00,CLR,,0.00,WeatherDisplay:10.37,2013-02-27 18:36:00,
2013-02-27 13:41:00,72.0,62.1,29.90,SW,217,4.0,4.0,71,0.00,CLR,,0.00,WeatherDisplay:10.37,2013-02-27 18:41:00,
2013-02-27 13:46:00,71.6,61.7,29.90,SSW,194,3.5,3.5,71,0.00,CLR,,0.00,WeatherDisplay:10.37,2013-02-27 18:46:00,
2013-02-27 13:51:00,71.5,61.2,29.89,SW,227,4.0,4.2,70,0.00,CLR,,0.00,WeatherDisplay:10.37,2013-02-27 18:51:00,
2013-02-27 13:56:00,71.3,61.8,29.89,South,184,2.3,2.3,72,0.00,CLR,,0.00,WeatherDisplay:10.37,2013-02-27 18:56:00,
2013-02-27 14:01:00,71.2,61.7,29.89,SW,214,3.5,3.5,72,0.00,CLR,,0.00,WeatherDisplay:10.37,2013-02-27 19:01:00,
2013-02-27 14:06:00,71.0,62.3,29.89,SW,228,3.5,3.5,74,0.00,CLR,,0.00,WeatherDisplay:10.37,2013-02-27 19:06:00,
2013-02-27 14:11:00,70.7,62.0,29.89,SSW,211,5.8,5.8,74,0.00,CLR,,0.00,WeatherDisplay:10.37,2013-02-27 19:11:00,
2013-02-27 14:16:00,70.4,61.7,29.89,SW,221,3.5,3.5,74,0.00,CLR,,0.00,WeatherDisplay:10.37,2013-02-27 19:16:00,
2013-02-27 14:21:00,70.3,62.4,29.89,SW,219,4.6,4.6,76,0.00,CLR,,0.00,WeatherDisplay:10.37,2013-02-27 19:21:00,
2013-02-27 14:26:00,70.0,62.5,29.89,SW,224,3.5,3.5,77,0.00,CLR,,0.00,WeatherDisplay:10.37,2013-02-27 19:26:00,
2013-02-27 14:31:00,69.9,62.4,29.89,SSW,207,3.5,0.0,77,0.00,CLR,,0.00,WeatherDisplay:10.37,2013-02-27 19:31:00,
2013-02-27 14:36:00,69.7,62.2,29.89,SW,225,4.6,4.6,77,0.01,RA,,0.01,WeatherDisplay:10.37,2013-02-27 19:36:00,
2013-02-27 14:41:00,69.2,62.4,29.89,SSW,200,3.5,3.5,79,0.01,RA,,0.01,WeatherDisplay:10.37,2013-02-27 19:41:00,
2013-02-27 14:46:00,68.6,62.2,29.89,SSW,205,3.5,3.5,80,0.01,CLR,,0.01,WeatherDisplay:10.37,2013-02-27 19:46:00,
2013-02-27 14:51:00,68.0,61.9,29.89,SW,223,3.5,3.5,81,0.01,CLR,,0.01,WeatherDisplay:10.37,2013-02-27 19:51:00,
2013-02-27 14:56:00,67.5,61.1,29.89,SW,221,4.6,4.6,80,0.01,CLR,,0.01,WeatherDisplay:10.37,2013-02-27 19:56:00,
2013-02-27 15:01:00,67.3,61.6,29.89,SW,225,2.3,2.3,82,0.01,CLR,,0.01,WeatherDisplay:10.37,2013-02-27 20:01:00,
2013-02-27 15:06:00,67.2,61.5,29.89,SSW,210,2.3,2.3,82,0.01,CLR,,0.01,WeatherDisplay:10.37,2013-02-27 20:06:00,
2013-02-27 15:11:00,67.3,62.0,29.89,WSW,251,3.5,3.5,83,0.01,CLR,,0.01,WeatherDisplay:10.37,2013-02-27 20:11:00,
2013-02-27 15:16:00,67.2,62.2,29.89,West,278,3.5,3.5,84,0.01,CLR,,0.01,WeatherDisplay:10.37,2013-02-27 20:16:00,
2013-02-27 15:21:00,67.1,62.4,29.90,West,272,3.5,3.5,85,0.01,CLR,,0.01,WeatherDisplay:10.37,2013-02-27 20:21:00,
2013-02-27 15:26:00,67.0,62.7,29.90,WSW,254,5.0,5.0,86,0.01,CLR,,0.01,WeatherDisplay:10.37,2013-02-27 20:26:00,
2013-02-27 15:31:00,66.8,62.1,29.89,WNW,284,3.5,3.5,85,0.01,CLR,,0.01,WeatherDisplay:10.37,2013-02-27 20:31:00,
2013-02-27 15:36:00,66.6,61.9,29.89,West,263,2.3,2.3,85,0.00,CLR,,0.01,WeatherDisplay:10.37,2013-02-27 20:36:00,
2013-02-27 15:41:00,66.6,61.9,29.90,WSW,252,3.5,3.5,85,0.00,CLR,,0.01,WeatherDisplay:10.37,2013-02-27 20:41:00,
2013-02-27 15:46:00,66.6,62.3,29.90,SW,227,2.3,2.3,86,0.00,CLR,,0.01,WeatherDisplay:10.37,2013-02-27 20:46:00,
2013-02-27 15:51:00,66.6,62.3,29.89,WSW,250,1.2,1.2,86,0.00,CLR,,0.01,WeatherDisplay:10.37,2013-02-27 20:51:00,
2013-02-27 15:56:00,66.6,62.9,29.88,WSW,250,2.3,2.3,88,0.00,CLR,,0.01,WeatherDisplay:10.37,2013-02-27 20:56:00,
2013-02-27 16:01:00,66.6,61.9,29.87,WSW,250,1.2,1.2,85,0.00,CLR,,0.01,WeatherDisplay:10.37,2013-02-27 21:01:00,
2013-02-27 16:06:00,66.7,61.7,29.87,WSW,248,3.5,3.5,84,0.00,CLR,,0.01,WeatherDisplay:10.37,2013-02-27 21:06:00,
2013-02-27 16:11:00,66.8,62.1,29.87,WSW,248,1.2,1.2,85,0.00,CLR,,0.01,WeatherDisplay:10.37,2013-02-27 21:11:00,
2013-02-27 16:16:00,66.9,62.9,29.87,SW,225,2.3,2.3,87,0.00,CLR,,0.01,WeatherDisplay:10.37,2013-02-27 21:16:00,
2013-02-27 16:21:00,67.0,63.0,29.88,SW,225,1.2,0.0,87,0.00,CLR,,0.01,WeatherDisplay:10.37,2013-02-27 21:21:00,
2013-02-27 16:26:00,67.0,63.0,29.88,SW,216,4.0,4.0,87,0.00,CLR,,0.01,WeatherDisplay:10.37,2013-02-27 21:26:00,
2013-02-27 16:31:00,66.9,62.6,29.88,SW,220,4.0,4.0,86,0.00,CLR,,0.01,WeatherDisplay:10.37,2013-02-27 21:31:00,
2013-02-27 16:36:00,66.8,62.8,29.89,WSW,250,2.3,2.3,87,0.00,CLR,,0.01,WeatherDisplay:10.37,2013-02-27 21:36:00,
2013-02-27 16:41:00,66.7,62.7,29.89,WNW,287,6.9,6.9,87,0.00,CLR,,0.01,WeatherDisplay:10.37,2013-02-27 21:41:00,
2013-02-27 16:46:00,66.6,62.9,29.90,West,268,4.6,4.6,88,0.02,RA,,0.03,WeatherDisplay:10.37,2013-02-27 21:46:00,
2013-02-27 16:51:00,66.1,62.1,29.90,West,272,4.6,4.6,87,0.02,RA,,0.03,WeatherDisplay:10.37,2013-02-27 21:51:00,
2013-02-27 16:56:00,65.7,62.0,29.89,WNW,285,6.0,6.0,88,0.04,RA,,0.05,WeatherDisplay:10.37,2013-02-27 21:56:00,
2013-02-27 17:01:00,65.0,61.7,29.90,West,265,6.0,6.0,89,0.04,RA,,0.05,WeatherDisplay:10.37,2013-02-27 22:01:00,
2013-02-27 17:06:00,64.8,62.1,29.89,West,260,7.0,7.0,91,0.04,,,0.06,WeatherDisplay:10.37,2013-02-27 22:06:00,
2013-02-27 17:11:00,64.4,61.7,29.89,WSW,254,5.8,5.8,91,0.06,RA,,0.07,WeatherDisplay:10.37,2013-02-27 22:11:00,
2013-02-27 17:16:00,64.1,61.4,29.89,WSW,254,6.9,6.9,91,0.06,RA,,0.07,WeatherDisplay:10.37,2013-02-27 22:16:00,
2013-02-27 17:21:00,63.9,61.5,29.89,WSW,253,3.5,3.5,92,0.07,RA,,0.08,WeatherDisplay:10.37,2013-02-27 22:21:00,
2013-02-27 17:26:00,63.7,61.6,29.89,SW,223,4.6,4.6,93,0.09,RA,,0.10,WeatherDisplay:10.37,2013-02-27 22:26:00,
2013-02-27 17:31:00,63.5,61.4,29.89,WSW,251,3.5,4.1,93,0.10,RA,,0.11,WeatherDisplay:10.37,2013-02-27 22:31:00,
2013-02-27 17:36:00,63.4,61.3,29.89,SW,219,4.6,4.6,93,0.10,RA,,0.11,WeatherDisplay:10.37,2013-02-27 22:36:00,
2013-02-27 17:41:00,63.3,61.5,29.89,West,267,6.9,6.9,94,0.10,,,0.11,WeatherDisplay:10.37,2013-02-27 22:41:00,
2013-02-27 17:46:00,63.2,61.4,29.89,West,269,6.0,6.0,94,0.08,CLR,,0.11,WeatherDisplay:10.37,2013-02-27 22:46:00,
2013-02-27 17:51:00,63.3,61.5,29.90,West,265,4.0,4.0,94,0.08,CLR,,0.11,WeatherDisplay:10.37,2013-02-27 22:51:00,
2013-02-27 17:56:00,63.3,61.8,29.89,West,277,3.5,3.5,95,0.06,CLR,,0.11,WeatherDisplay:10.37,2013-02-27 22:56:00,
2013-02-27 18:01:00,63.4,61.9,29.90,SW,214,1.2,1.2,95,0.06,CLR,,0.11,WeatherDisplay:10.37,2013-02-27 23:01:00,
2013-02-27 18:06:00,63.5,62.0,29.90,West,277,4.6,4.6,95,0.06,CLR,,0.11,WeatherDisplay:10.37,2013-02-27 23:06:00,
2013-02-27 18:11:00,63.5,62.0,29.90,WSW,249,5.8,5.8,95,0.04,CLR,,0.11,WeatherDisplay:10.37,2013-02-27 23:11:00,
2013-02-27 18:16:00,63.5,62.0,29.90,West,261,3.5,3.5,95,0.04,CLR,,0.11,WeatherDisplay:10.37,2013-02-27 23:16:00,
2013-02-27 18:21:00,63.5,62.0,29.90,WSW,245,4.0,4.0,95,0.03,CLR,,0.11,WeatherDisplay:10.37,2013-02-27 23:21:00,
2013-02-27 18:26:00,63.5,62.0,29.90,West,268,6.9,6.9,95,0.01,CLR,,0.11,WeatherDisplay:10.37,2013-02-27 23:26:00,
2013-02-27 18:31:00,63.5,62.0,29.90,West,269,3.5,3.5,95,0.00,CLR,,0.11,WeatherDisplay:10.37,2013-02-27 23:31:00,
2013-02-27 18:36:00,63.5,62.0,29.90,NW,306,5.8,5.8,95,0.00,CLR,,0.11,WeatherDisplay:10.37,2013-02-27 23:36:00,
2013-02-27 18:41:00,63.4,61.6,29.90,WSW,254,5.8,5.8,94,0.00,CLR,,0.11,WeatherDisplay:10.37,2013-02-27 23:41:00,
2013-02-27 18:46:00,63.4,61.6,29.90,WSW,257,7.0,7.0,94,0.00,CLR,,0.13,WeatherDisplay:10.37,2013-02-27 23:46:00,
2013-02-27 18:51:00,63.2,61.4,29.91,West,267,6.9,6.9,94,0.02,RA,,0.13,WeatherDisplay:10.37,2013-02-27 23:51:00,
2013-02-27 18:56:00,63.1,61.6,29.90,West,275,6.0,6.0,95,0.03,RA,,0.14,WeatherDisplay:10.37,2013-02-27 23:56:00,
2013-02-27 19:01:00,63.1,61.6,29.90,SW,236,3.5,3.5,95,0.04,RA,,0.15,WeatherDisplay:10.37,2013-02-28 00:01:00,
2013-02-27 19:06:00,63.0,61.5,29.90,SSW,198,3.5,3.5,95,0.05,RA,,0.16,WeatherDisplay:10.37,2013-02-28 00:06:00,
2013-02-27 19:11:00,63.0,61.5,29.90,WSW,240,3.5,3.5,95,0.05,RA,,0.16,WeatherDisplay:10.37,2013-02-28 00:11:00,
2013-02-27 19:16:00,62.9,61.4,29.90,SW,229,3.5,3.5,95,0.05,CLR,,0.16,WeatherDisplay:10.37,2013-02-28 00:16:00,
2013-02-27 19:21:00,62.9,61.4,29.90,SSW,213,3.5,3.5,95,0.05,CLR,,0.16,WeatherDisplay:10.37,2013-02-28 00:21:00,
2013-02-27 19:26:00,63.0,61.8,29.90,SW,232,3.5,3.5,96,0.05,CLR,,0.16,WeatherDisplay:10.37,2013-02-28 00:26:00,
2013-02-27 19:31:00,63.0,61.8,29.90,SSW,205,3.5,3.5,96,0.05,CLR,,0.16,WeatherDisplay:10.37,2013-02-28 00:31:00,
2013-02-27 19:36:00,63.1,61.9,29.90,SSW,202,3.5,3.5,96,0.05,CLR,,0.16,WeatherDisplay:10.37,2013-02-28 00:36:00,
2013-02-27 19:41:00,63.3,62.1,29.90,SW,220,2.3,2.3,96,0.05,CLR,,0.16,WeatherDisplay:10.37,2013-02-28 00:41:00,
2013-02-27 19:46:00,63.4,62.2,29.90,South,187,3.5,3.5,96,0.05,CLR,,0.16,WeatherDisplay:10.37,2013-02-28 00:46:00,
2013-02-27 19:51:00,63.3,62.1,29.91,SW,232,3.5,3.5,96,0.03,CLR,,0.16,WeatherDisplay:10.37,2013-02-28 00:51:00,
2013-02-27 19:56:00,63.3,62.1,29.91,SW,223,2.3,2.3,96,0.02,CLR,,0.16,WeatherDisplay:10.37,2013-02-28 00:56:00,
2013-02-27 20:01:00,63.3,62.1,29.90,SSW,196,3.5,3.5,96,0.01,CLR,,0.16,WeatherDisplay:10.37,2013-02-28 01:01:00,
2013-02-27 20:06:00,63.4,62.2,29.90,SSW,210,2.3,2.3,96,0.00,CLR,,0.16,WeatherDisplay:10.37,2013-02-28 01:06:00,
2013-02-27 20:11:00,63.5,62.6,29.91,SSW,200,3.5,3.5,97,0.00,CLR,,0.16,WeatherDisplay:10.37,2013-02-28 01:11:00,
2013-02-27 20:16:00,63.5,62.3,29.91,SW,217,4.6,4.6,96,0.00,CLR,,0.16,WeatherDisplay:10.37,2013-02-28 01:16:00,
2013-02-27 20:21:00,63.5,62.3,29.91,SW,218,3.5,3.5,96,0.00,CLR,,0.16,WeatherDisplay:10.37,2013-02-28 01:21:00,
2013-02-27 20:26:00,63.5,62.3,29.92,SW,217,9.2,9.2,96,0.00,CLR,,0.16,WeatherDisplay:10.37,2013-02-28 01:26:00,
2013-02-27 20:31:00,63.5,62.6,29.92,SSW,194,11.5,11.5,97,0.00,CLR,,0.16,WeatherDisplay:10.37,2013-02-28 01:31:00,
2013-02-27 20:36:00,63.7,62.8,29.91,SSW,212,6.9,6.9,97,0.00,CLR,,0.16,WeatherDisplay:10.37,2013-02-28 01:36:00,
2013-02-27 20:41:00,63.8,62.9,29.92,SSW,207,5.8,5.8,97,0.00,CLR,,0.16,WeatherDisplay:10.37,2013-02-28 01:41:00,
2013-02-27 20:46:00,63.9,63.0,29.91,SW,223,8.1,8.1,97,0.00,CLR,,0.16,WeatherDisplay:10.37,2013-02-28 01:46:00,
2013-02-27 20:51:00,63.9,63.0,29.91,SSW,212,9.2,9.2,97,0.00,CLR,,0.16,WeatherDisplay:10.37,2013-02-28 01:51:00,
2013-02-27 20:56:00,63.9,62.7,29.91,SW,221,8.1,8.1,96,0.00,CLR,,0.16,WeatherDisplay:10.37,2013-02-28 01:56:00,
2013-02-27 21:01:00,63.9,62.7,29.91,SW,215,8.1,8.1,96,0.00,CLR,,0.16,WeatherDisplay:10.37,2013-02-28 02:01:00,
2013-02-27 21:06:00,63.9,62.4,29.91,SSW,200,9.2,9.2,95,0.00,CLR,,0.16,WeatherDisplay:10.37,2013-02-28 02:06:00,
2013-02-27 21:11:00,63.9,62.4,29.91,SSW,213,6.9,6.9,95,0.00,CLR,,0.16,WeatherDisplay:10.37,2013-02-28 02:11:00,
2013-02-27 21:16:00,63.9,62.4,29.91,SW,215,5.8,5.8,95,0.00,CLR,,0.16,WeatherDisplay:10.37,2013-02-28 02:16:00,
2013-02-27 21:21:00,63.9,62.1,29.90,SW,235,5.8,5.8,94,0.00,CLR,,0.16,WeatherDisplay:10.37,2013-02-28 02:21:00,
2013-02-27 21:26:00,63.8,62.0,29.90,SSW,208,3.5,3.5,94,0.00,CLR,,0.16,WeatherDisplay:10.37,2013-02-28 02:26:00,
2013-02-27 21:31:00,63.7,61.6,29.90,West,259,6.9,6.9,93,0.00,CLR,,0.16,WeatherDisplay:10.37,2013-02-28 02:31:00,
2013-02-27 21:36:00,63.7,61.6,29.90,SW,221,3.5,3.5,93,0.00,CLR,,0.16,WeatherDisplay:10.37,2013-02-28 02:36:00,
2013-02-27 21:41:00,63.6,61.5,29.91,WSW,251,3.5,3.5,93,0.00,CLR,,0.16,WeatherDisplay:10.37,2013-02-28 02:41:00,
2013-02-27 21:46:00,63.5,61.4,29.91,WSW,242,5.0,5.0,93,0.00,CLR,,0.16,WeatherDisplay:10.37,2013-02-28 02:46:00,
2013-02-27 21:51:00,63.5,61.4,29.91,WSW,247,3.5,3.5,93,0.00,CLR,,0.16,WeatherDisplay:10.37,2013-02-28 02:51:00,
2013-02-27 21:56:00,63.5,61.4,29.91,West,259,4.6,4.6,93,0.00,CLR,,0.16,WeatherDisplay:10.37,2013-02-28 02:56:00,
2013-02-27 22:01:00,63.5,61.7,29.91,WSW,258,2.3,2.3,94,0.00,CLR,,0.16,WeatherDisplay:10.37,2013-02-28 03:01:00,
2013-02-27 22:06:00,63.5,61.7,29.92,West,271,5.8,5.8,94,0.00,CLR,,0.16,WeatherDisplay:10.37,2013-02-28 03:06:00,
2013-02-27 22:11:00,63.5,61.7,29.92,WSW,254,4.0,4.0,94,0.00,CLR,,0.16,WeatherDisplay:10.37,2013-02-28 03:11:00,
2013-02-27 22:16:00,63.4,61.3,29.92,WNW,284,10.0,10.0,93,0.00,CLR,,0.16,WeatherDisplay:10.37,2013-02-28 03:16:00,
2013-02-27 22:21:00,63.3,60.9,29.92,West,261,5.8,5.8,92,0.00,CLR,,0.16,WeatherDisplay:10.37,2013-02-28 03:21:00,
2013-02-27 22:26:00,63.3,61.2,29.93,West,263,4.6,4.6,93,0.00,CLR,,0.16,WeatherDisplay:10.37,2013-02-28 03:26:00,
2013-02-27 22:31:00,63.3,61.2,29.93,SW,225,3.5,3.5,93,0.00,CLR,,0.16,WeatherDisplay:10.37,2013-02-28 03:31:00,
2013-02-27 22:36:00,63.2,60.8,29.93,West,274,6.9,6.9,92,0.00,CLR,,0.16,WeatherDisplay:10.37,2013-02-28 03:36:00,
2013-02-27 22:41:00,63.1,60.7,29.93,West,263,10.4,10.4,92,0.00,CLR,,0.16,WeatherDisplay:10.37,2013-02-28 03:41:00,
2013-02-27 22:46:00,63.1,60.7,29.93,West,272,6.9,6.9,92,0.00,CLR,,0.16,WeatherDisplay:10.37,2013-02-28 03:46:00,
2013-02-27 22:51:00,63.0,60.6,29.93,West,279,6.9,6.9,92,0.00,CLR,,0.16,WeatherDisplay:10.37,2013-02-28 03:51:00,
2013-02-27 22:56:00,63.1,60.7,29.93,West,267,5.8,5.8,92,0.00,CLR,,0.16,WeatherDisplay:10.37,2013-02-28 03:56:00,
2013-02-27 23:01:00,63.1,60.7,29.92,WSW,254,9.2,9.2,92,0.00,CLR,,0.16,WeatherDisplay:10.37,2013-02-28 04:01:00,
2013-02-27 23:06:00,63.1,60.7,29.92,West,260,8.1,8.1,92,0.00,CLR,,0.16,WeatherDisplay:10.37,2013-02-28 04:06:00,
2013-02-27 23:11:00,63.1,61.0,29.92,West,267,5.0,5.0,93,0.00,CLR,,0.16,WeatherDisplay:10.37,2013-02-28 04:11:00,
2013-02-27 23:16:00,63.1,61.0,29.92,WSW,242,6.9,6.9,93,0.00,CLR,,0.16,WeatherDisplay:10.37,2013-02-28 04:16:00,
2013-02-27 23:21:00,63.2,61.1,29.92,WSW,241,8.1,8.1,93,0.00,CLR,,0.16,WeatherDisplay:10.37,2013-02-28 04:21:00,
2013-02-27 23:26:00,63.2,61.1,29.92,WSW,245,4.6,4.6,93,0.00,CLR,,0.16,WeatherDisplay:10.37,2013-02-28 04:26:00,
2013-02-27 23:31:00,63.3,61.5,29.92,WSW,252,6.0,6.0,94,0.00,CLR,,0.16,WeatherDisplay:10.37,2013-02-28 04:31:00,
2013-02-27 23:36:00,63.4,61.3,29.92,West,259,9.2,9.2,93,0.00,CLR,,0.16,WeatherDisplay:10.37,2013-02-28 04:36:00,
2013-02-27 23:41:00,63.5,61.4,29.92,WSW,255,9.2,9.2,93,0.00,CLR,,0.16,WeatherDisplay:10.37,2013-02-28 04:41:00,
2013-02-27 23:46:00,63.5,61.4,29.92,West,271,5.8,5.8,93,0.00,CLR,,0.16,WeatherDisplay:10.37,2013-02-28 04:46:00,
2013-02-27 23:51:00,63.6,61.5,29.91,WSW,241,5.8,5.8,93,0.00,CLR,,0.16,WeatherDisplay:10.37,2013-02-28 04:51:00,
2013-02-27 23:56:00,63.6,61.5,29.91,West,265,6.9,6.9,93,0.00,CLR,,0.16,WeatherDisplay:10.37,2013-02-28 04:56:00,